Regional Weather Roundup
Issued by NWS

Home | Current Version | Previous Version | Text Only | Print | Product List | Glossary Off
Versions: 1 2 3 4 5 6 7 8 9 10 11 12 13 14 15 16 17 18 19 20 21 22 23 24 25 26 27 28 29 30 31 32 33 34 35 36 37 38 39 40 41 42 43 44 45 46 47 48 49 50

000
ASUS43 KDMX 191707
RWRIA

WEATHER ROUNDUP FOR IOWA
NATIONAL WEATHER SERVICE DES MOINES IA
1200 PM CDT TUE AUG 19 2014

NOTE: "FAIR" INDICATES FEW OR NO CLOUDS BELOW 12,000 FEET WITH NO
SIGNIFICANT WEATHER AND/OR OBSTRUCTIONS TO VISIBILITY.

* - THESE STATIONS ARE NOT NWS STATIONS...THUS NOT UNDER NWS
QUALITY CONTROL.  THEY ALSO DO NOT REPORT WEATHER SUCH
AS PRECIPITATION OR FOG.

IAZ001>003-012>014-020>022-031>034-043>046-191800-
   NORTHWEST IOWA

CITY           SKY/WX    TMP DP  RH WIND       PRES   REMARKS
CARROLL *      SUNNY     79  66  65 NW12      29.83R HX  81
CHEROKEE *     SUNNY     77  66  69 CALM      29.84S
DENISON *      SUNNY     79  66  65 NW10      29.83S HX  81
LE MARS *      SUNNY     79  66  65 VRB6      29.84F HX  81
ORANGE CITY *  SUNNY     79  64  61 W3        29.85S HX  81
SHELDON *      SUNNY     77  66  69 VRB5      29.83S
SIOUX CITY     SUNNY     81  65  58 VRB5      29.84R HX  83
SPENCER        MOSUNNY   78  65  63 CALM      29.83S HX  80
STORM LAKE *   SUNNY     77  66  69 VRB6      29.85S
$$

IAZ055>058-069>071-079>083-090>094-191800-
   SOUTHWEST IOWA

CITY           SKY/WX    TMP DP  RH WIND       PRES   REMARKS
ATLANTIC *     SUNNY     81  68  65 VRB5      29.84R HX  83
AUDUBON *      SUNNY     82  70  65 NW7       29.85S HX  86
CLARINDA *     SUNNY     84  70  61 SW8       29.86S HX  88
COUNCIL BLFS * SUNNY     82  66  57 VRB6      29.84S HX  85
CRESTON *      SUNNY     81  68  65 VRB7      29.85R HX  83
HARLAN  *      SUNNY     79  66  65 NW8       29.87S HX  81
LAMONI         SUNNY     83  70  64 NW10      29.83R HX  87
RED OAK *      SUNNY     84  66  54 VRB6G13   29.84S HX  86
SHENANDOAH *   SUNNY     84  70  61 W6        29.85S HX  88
$$

IAZ047>049-059>061-072>074-084-191800-
   CENTRAL IOWA

CITY           SKY/WX    TMP DP  RH WIND       PRES   REMARKS
AMES           MOSUNNY   80  65  59 N10       29.81R HX  82
ANKENY *       SUNNY     81  66  61 W8G14     29.80S HX  83
CHARITON *     SUNNY     81  70  69 NW9       29.82R HX  84
DES MOINES     MOSUNNY   83  66  56 W8        29.80S HX  85
GRINNELL*      SUNNY     79  66  65 NW8       29.81R HX  81
KNOXVILLE *    SUNNY     81  64  57 NW13      29.79S HX  82
MARSHALLTOWN   SUNNY     80  66  62 NW10      29.79S HX  82
PELLA *        SUNNY     82  66  57 NW10      29.81S HX  85
PERRY *          N/A     79  66  65 NW6       29.82S HX  81
$$

IAZ004>006-015-016-023>025-035-036-191800-
   NORTH CENTRAL IOWA

CITY           SKY/WX    TMP DP  RH WIND       PRES   REMARKS
ALGONA *       MOSUNNY   77  64  65 NW10      29.82F
CLARION *      MOSUNNY   77  64  65 N9G16     29.81S
ESTHERVILLE    MOSUNNY   76  65  68 NW5       29.82F
FORT DODGE *   SUNNY     79  64  61 NW7       29.82S HX  81
MASON CITY     MOSUNNY   76  63  64 NW12G20   29.81S
FOREST CITY *  MOSUNNY   75  63  64 NW14      29.81S
IOWA FALLS *     N/A     77  64  65 NW9G16    29.82S
$$

IAZ007>011-017>019-026>030-037>042-050>054-066-191800-
   NORTHEAST IOWA

CITY           SKY/WX    TMP DP  RH WIND       PRES   REMARKS
CEDAR RAPIDS   MOSUNNY   81  67  62 W8        29.77S HX  83
CHARLES CITY * PTSUNNY   75  64  69 NW10      29.80S
CLINTON *      PTSUNNY   81  70  69 SW13      29.79S HX  84
DECORAH *      CLOUDY    73  64  73 VRB5      29.77R
DUBUQUE        PTSUNNY   78  65  63 W9        29.77S HX  80
MONTICELLO *   PTSUNNY   81  68  65 W10       29.76S HX  83
OELWEIN *      PTSUNNY   75  66  73 NW12      29.79S
WATERLOO       MOSUNNY   79  64  60 NW12      29.77S HX  81
$$

IAZ064-065-067-068-078-191800-
   EAST CENTRAL IOWA

CITY           SKY/WX    TMP DP  RH WIND       PRES   REMARKS
DAVENPORT      PTSUNNY   78  68  71 SW10      29.77F HX  80
IOWA CITY      MOSUNNY   83  67  58 NW9       29.78F HX  85
MT. PLEASANT * MOSUNNY   81  68  65 W5        29.78F HX  83
MUSCATINE *    MOSUNNY   82  70  65 VRB5      29.77F HX  86
QUAD CITIES    PTSUNNY   80  68  66 SW13      29.77S HX  83
$$

IAZ062-063-075>077-085>089-095>099-191800-
   SOUTHEAST IOWA

CITY           SKY/WX    TMP DP  RH WIND       PRES   REMARKS
BURLINGTON     LGT RAIN  78  67  68 VRB5      29.78F HX  80
FAIRFIELD *    SUNNY     82  68  61 NW8       29.79S HX  85
FORT MADISON * SUNNY     79  70  73 CALM      29.79F HX  81
KEOKUK *       SUNNY     77  68  73 VRB3      29.79S
OSKALOOSA *      N/A     81  70  69 NW8       29.80S HX  84
CENTERVILLE *  SUNNY     82  73  74 W5        29.83R HX  88
OTTUMWA        MOSUNNY   82  70  66 NW10      29.78R HX  86
WASHINGTON *   MOSUNNY   82  72  69 NW9       29.78F HX  87
$$

ABBREVIATIONS USED IN REMARKS
   TC - TEMPERATURES IN CELSIUS
  WCI - WIND CHILL INDEX
   HX - HEAT INDEX
  VSB - VISIBILITY
$$




USA.gov is the U.S. government's official web portal to all federal, state and local government web resources and services.